Stations météo

Publicité
Laupheim, Allemagne (10837): Température de l'air & dewpoint: 04.12.2018 16:00:00 - 10.12.2018 16:00:00 (CET)Laupheim, Allemagne (10837): Vitesse du vent & gusts: 04.12.2018 16:00:00 - 10.12.2018 16:00:00 (CET)Laupheim, Allemagne (10837): Direction du vent: 04.12.2018 16:00:00 - 10.12.2018 16:00:00 (CET)Laupheim, Allemagne (10837): reduced air pressure: 04.12.2018 16:00:00 - 10.12.2018 16:00:00 (CET)Laupheim, Allemagne (10837): visibility: 04.12.2018 16:00:00 - 10.12.2018 16:00:00 (CET)
Date & Time tt [°C] td [°C] ff [km/h] ff [knt] fx [km/h] fx [knt] dd ppp [hPa] vv [km]
10.12.2018 16:00:00 3,1 0,0 7 4 - - NW 1023,2 30
10.12.2018 15:00:00 4,0 -0,8 14 8 - - W 1022,8 10
10.12.2018 14:00:00 3,5 0,3 18 10 - - W 1023,1 9
10.12.2018 13:00:00 4,2 0,1 22 12 - - W 1023,2 25
10.12.2018 12:00:00 3,6 -0,8 22 12 - - WNW 1023,7 25
10.12.2018 11:00:00 3,4 0,5 22 12 - - WNW 1023,6 25
10.12.2018 10:00:00 1,6 0,7 14 8 - - W 1023,8 25
10.12.2018 09:00:00 0,3 -0,3 7 4 - - W 1023,7 20
10.12.2018 08:00:00 0,7 -0,7 11 6 - - NW 1022,8 8
10.12.2018 07:00:00 2,7 0,3 22 12 - - WSW 1021,4 20
10.12.2018 06:00:00 2,6 0,3 22 12 - - WSW 1021,0 16
10.12.2018 05:00:00 3,0 0,6 25 14 - - W 1020,5 18
10.12.2018 04:00:00 2,8 0,9 22 12 - - WSW 1020,0 18
10.12.2018 03:00:00 3,8 1,9 22 12 - - WSW 1019,4 25
10.12.2018 02:00:00 4,3 2,0 22 12 - - W 1018,2 20
10.12.2018 01:00:00 4,3 2,3 18 10 - - W 1017,2 10
10.12.2018 00:00:00 4,9 2,1 21 11 - - W 1016,1 7
09.12.2018 23:00:00 5,3 2,5 18 10 - - W 1015,0 25
09.12.2018 22:00:00 5,0 3,2 15 8 - - WNW 1014,0 10
09.12.2018 21:00:00 5,0 3,3 22 12 - - WSW 1012,6 18
09.12.2018 20:00:00 4,8 3,1 22 12 - - WSW 1011,4 20
09.12.2018 19:00:00 4,7 3,3 29 16 - - WSW 1010,1 20
09.12.2018 18:00:00 4,7 2,9 32 18 47 25 WSW 1008,9 20
09.12.2018 17:00:00 4,7 2,8 32 18 54 29 WSW 1008,3 20
09.12.2018 16:00:00 5,3 3,2 32 18 - - WSW 1007,8 20
09.12.2018 15:00:00 5,3 2,2 40 21 58 31 WSW 1007,3 20
09.12.2018 14:00:00 6,5 2,5 40 21 54 29 WSW 1007,0 25
09.12.2018 13:00:00 6,3 2,8 25 14 - - W 1006,9 25
09.12.2018 12:00:00 6,8 2,4 40 21 58 31 WSW 1007,2 25
09.12.2018 11:00:00 5,6 2,3 25 14 61 33 WSW 1008,0 25
09.12.2018 10:00:00 6,0 2,1 29 16 - - WSW 1007,7 25
09.12.2018 09:00:00 4,6 1,9 29 16 47 25 WSW 1006,6 25
09.12.2018 08:00:00 4,2 1,5 29 16 72 39 WSW 1005,8 30
09.12.2018 07:00:00 5,0 2,5 37 20 - - W 1006,0 10
09.12.2018 06:00:00 6,6 3,6 40 21 72 39 W 1004,2 8
09.12.2018 05:00:00 7,3 4,2 47 25 79 43 W 1003,6 7
09.12.2018 04:00:00 6,7 4,6 32 18 - - WSW 1003,7 7
09.12.2018 03:00:00 6,8 4,3 36 19 54 29 WSW 1005,1 6
09.12.2018 02:00:00 6,4 4,1 32 18 58 31 WSW 1005,9 8
09.12.2018 01:00:00 6,3 3,6 29 16 - - SW 1007,0 15
09.12.2018 00:00:00 5,6 3,4 36 19 58 31 SW 1008,3 8
08.12.2018 23:00:00 5,2 2,8 36 19 65 35 SW 1009,4 20
08.12.2018 22:00:00 5,8 2,3 36 19 - - SW 1011,2 25
08.12.2018 21:00:00 6,1 2,0 40 21 54 29 SW 1012,1 30
08.12.2018 20:00:00 6,2 1,7 40 21 58 31 SW 1012,9 40
08.12.2018 19:00:00 6,0 1,8 36 19 - - SW 1013,6 40
08.12.2018 18:00:00 5,8 2,2 36 19 54 29 SW 1014,1 40
08.12.2018 17:00:00 5,7 1,9 35 19 54 29 SW 1014,4 10
08.12.2018 16:00:00 5,8 1,6 39 21 - - SW 1014,7 10
08.12.2018 15:00:00 5,6 1,5 40 21 68 37 WSW 1014,4 27
08.12.2018 14:00:00 5,7 1,1 40 21 65 35 SW 1014,3 25
08.12.2018 13:00:00 5,9 0,2 40 21 - - WSW 1014,7 40
08.12.2018 12:00:00 5,5 -0,1 40 21 68 37 WSW 1015,0 35
08.12.2018 11:00:00 5,3 -0,1 36 19 65 35 WSW 1015,6 30
08.12.2018 10:00:00 5,0 0,0 40 21 - - WSW 1016,2 30
08.12.2018 09:00:00 4,5 -0,1 32 18 58 31 SW 1016,9 25
08.12.2018 08:00:00 4,1 0,1 40 21 61 33 SW 1016,8 25
08.12.2018 07:00:00 3,7 -0,2 32 18 - - SW 1016,1 20
08.12.2018 06:00:00 3,7 0,1 25 14 50 27 SW 1016,0 20
08.12.2018 05:00:00 3,4 0,6 22 12 - - SW 1016,3 20
08.12.2018 04:00:00 3,5 1,2 25 14 - - WSW 1016,0 20
08.12.2018 03:00:00 4,4 0,6 25 14 - - WSW 1015,5 20
08.12.2018 02:00:00 5,1 0,4 29 16 50 27 W 1014,5 20
08.12.2018 01:00:00 5,7 1,4 29 16 - - W 1012,7 20
08.12.2018 00:00:00 6,4 2,1 22 12 58 31 W 1011,2 20
07.12.2018 23:00:00 7,9 4,4 32 18 58 31 W 1009,8 20
07.12.2018 22:00:00 8,8 5,6 29 16 - - SW 1008,6 12
07.12.2018 21:00:00 8,7 5,5 32 18 50 27 SW 1008,7 12
07.12.2018 20:00:00 8,6 5,4 22 12 - - SW 1009,0 25
07.12.2018 19:00:00 8,1 5,3 18 10 - - SW 1009,0 25
07.12.2018 18:00:00 8,4 5,0 18 10 - - SW 1009,2 25
07.12.2018 17:00:00 9,4 5,0 25 14 50 27 WSW 1009,8 30
07.12.2018 16:00:00 9,7 5,9 25 14 - - SW 1011,0 30
07.12.2018 15:00:00 10,0 6,0 25 14 50 27 SW 1012,0 30
07.12.2018 14:00:00 10,3 6,2 25 14 - - WSW 1012,7 30
07.12.2018 13:00:00 10,2 6,6 29 16 - - SW 1013,6 30
07.12.2018 12:00:00 10,0 6,9 25 14 - - SW 1015,2 30
07.12.2018 11:00:00 9,7 6,8 22 12 - - SW 1016,8 30
07.12.2018 10:00:00 9,4 6,8 18 10 - - SW 1017,8 30
07.12.2018 09:00:00 9,0 6,6 18 10 - - SW 1018,5 30
07.12.2018 08:00:00 9,0 6,6 18 10 - - SW 1019,1 12
07.12.2018 07:00:00 8,8 6,6 18 10 - - SW 1019,5 12
07.12.2018 06:00:00 8,5 6,5 14 8 - - SW 1019,8 12
07.12.2018 05:00:00 8,5 6,5 18 10 - - SW 1020,0 12
07.12.2018 04:00:00 8,5 6,5 22 12 - - SW 1020,8 9
07.12.2018 03:00:00 8,5 6,4 18 10 - - SW 1021,6 9
07.12.2018 02:00:00 8,5 6,5 14 8 - - SSW 1021,8 9
07.12.2018 01:00:00 8,5 6,6 14 8 - - SSW 1022,4 9
07.12.2018 00:00:00 8,4 6,6 14 8 - - SW 1022,7 9
06.12.2018 23:00:00 8,4 6,6 11 6 - - SW 1023,0 9
06.12.2018 22:00:00 8,5 6,6 11 6 - - SW 1023,0 9
06.12.2018 21:00:00 8,4 6,8 18 10 - - SW 1023,4 9
06.12.2018 20:00:00 8,3 6,8 14 8 - - SW 1023,3 10
06.12.2018 19:00:00 8,9 7,0 14 8 - - SW 1023,0 10
06.12.2018 18:00:00 9,1 7,0 14 8 - - WSW 1022,8 10
06.12.2018 17:00:00 8,9 7,1 11 6 - - SW 1022,6 9
06.12.2018 16:00:00 9,1 7,2 14 8 - - WSW 1022,4 9
06.12.2018 15:00:00 9,1 7,1 8 4 - - WSW 1021,9 9
06.12.2018 14:00:00 9,1 6,6 22 12 - - SW 1022,0 10
06.12.2018 13:00:00 9,5 6,8 22 12 - - SW 1021,7 10
06.12.2018 12:00:00 8,8 6,9 22 12 - - WSW 1021,9 8
06.12.2018 11:00:00 8,0 6,8 14 8 - - WSW 1022,0 7
06.12.2018 10:00:00 6,9 5,8 14 8 - - SW 1022,1 6
06.12.2018 09:00:00 6,6 5,6 21 11 - - SW 1021,3 6
06.12.2018 08:00:00 6,3 5,3 14 8 - - SW 1020,2 6
06.12.2018 07:00:00 6,3 5,3 14 8 - - SW 1019,9 6
06.12.2018 06:00:00 5,6 5,0 7 4 - - SSW 1020,2 5
06.12.2018 05:00:00 5,0 4,6 4 2 - - NW 1019,9 5
06.12.2018 04:00:00 5,2 4,9 4 2 - - N 1020,4 5
06.12.2018 03:00:00 4,5 4,3 7 4 - - ESE 1020,4 4,5
06.12.2018 02:00:00 4,1 3,9 7 4 - - W 1021,6 0,7
06.12.2018 01:00:00 3,4 3,1 7 4 - - SW 1021,2 0,2
06.12.2018 00:00:00 3,4 3,1 4 2 - - WNW 1021,5 0,2
05.12.2018 23:00:00 3,2 2,9 4 2 - - NNE 1021,5 0,2
05.12.2018 22:00:00 3,2 2,9 4 2 - - N 1022,3 0,8
05.12.2018 21:00:00 3,3 2,9 7 4 - - NNE 1022,5 3,9
05.12.2018 20:00:00 3,3 2,8 7 4 - - NE 1022,9 5
05.12.2018 19:00:00 3,9 3,4 8 4 - - NE 1023,3 6
05.12.2018 18:00:00 4,0 3,3 7 4 - - NE 1023,9 8
05.12.2018 17:00:00 4,5 3,8 7 4 - - NE 1024,2 9
05.12.2018 16:00:00 5,3 4,1 8 4 - - NE 1024,8 9
05.12.2018 15:00:00 6,0 4,3 4 2 - - E 1024,8 8
05.12.2018 14:00:00 5,7 4,2 4 2 - - N 1025,7 6
05.12.2018 13:00:00 5,5 4,3 7 4 - - E 1026,4 4,5
05.12.2018 12:00:00 5,2 4,0 7 4 - - E 1027,1 4,0
05.12.2018 11:00:00 4,7 3,7 7 4 - - NE 1027,9 3,2
05.12.2018 10:00:00 4,4 3,7 0 0 - - N 1027,8 2,2
05.12.2018 09:00:00 4,1 3,5 0 0 - - N 1028,2 1,6
05.12.2018 08:00:00 3,8 3,3 4 2 - - ESE 1028,0 1,4
05.12.2018 07:00:00 3,7 3,1 2 1 - - - 1027,6 1,4
05.12.2018 06:00:00 3,7 3,2 4 2 - - ENE 1027,6 4,0
05.12.2018 05:00:00 3,6 3,1 4 2 - - ENE 1027,5 4,0
05.12.2018 04:00:00 3,9 3,4 7 4 - - E 1027,5 5
05.12.2018 03:00:00 3,9 3,4 4 2 - - NE 1027,7 6
05.12.2018 02:00:00 4,0 3,5 7 4 - - E 1027,7 8
05.12.2018 01:00:00 4,0 3,5 0 0 - - N 1028,1 12
05.12.2018 00:00:00 4,0 3,5 0 0 - - N 1028,2 14
04.12.2018 23:00:00 4,4 3,4 4 2 - - E 1027,4 15
04.12.2018 22:00:00 4,6 3,5 7 4 - - N 1027,5 15
04.12.2018 21:00:00 4,7 3,0 4 2 - - E 1027,0 20
04.12.2018 20:00:00 4,9 2,5 4 2 - - W 1026,7 20
04.12.2018 19:00:00 5,5 3,2 4 2 - - NW 1026,1 20
04.12.2018 18:00:00 5,5 3,2 4 2 - - N 1025,2 25
04.12.2018 17:00:00 5,7 3,5 4 2 - - NNW 1024,2 25
04.12.2018 16:00:00 5,9 3,2 7 4 - - WNW 1023,5 19

tt = Température de l'air
td = dewpoint
ff = Vitesse du vent
fx = gusts
dd = Direction du vent
ppp = reduced air pressure
vv = visibility

stations d'obs. à proximité